Regional Weather Roundup
Issued by NWS

Home | Current Version | Previous Version | Graphics & Text | Print | Product List | Glossary On
Versions: 1 2 3 4 5 6 7 8 9 10 11 12 13 14 15 16 17 18 19 20 21 22 23 24 25 26 27 28 29 30 31 32 33 34 35 36 37 38 39 40 41 42 43 44 45 46 47 48 49 50
642
ASUS43 KFSD 260102
RWRSD

WEATHER ROUNDUP FOR SOUTH DAKOTA
NATIONAL WEATHER SERVICE SIOUX FALLS SD
800 PM CDT FRI MAY 25 2018

NOTE: "FAIR" INDICATES FEW OR NO CLOUDS BELOW 12,000 FEET WITH NO
SIGNIFICANT WEATHER AND/OR OBSTRUCTIONS TO VISIBILITY.


SDZ001>005-009-010-012>017-260200-
NORTHWEST AND NORTH CENTRAL SOUTH DAKOTA

CITY           SKY/WX    TMP DP  RH WIND       PRES   REMARKS
BUFFALO          N/A     79  50  36 NW14      29.79S
FAITH            N/A     79  62  56 NW6       29.81F
MOBRIDGE       SUNNY     84  57  39 W8        29.71F
$$

SDZ012>016-024>037-041>051-057-063-072>074-260200-
SOUTHWEST AND SOUTH CENTRAL SOUTH DAKOTA

CITY           SKY/WX    TMP DP  RH WIND       PRES   REMARKS
RAPID CTY ARPT SUNNY     80  59  48 CALM      29.87F
PIERRE         SUNNY     81  62  52 NW8       29.75F
CUSTER         SUNNY     70  52  52 E9        30.02S
ELLSWORTH AFB  SUNNY     79  55  42 CALM      29.88S
PHILIP         MOSUNNY   83  67  58 N5        29.80F
PINE RIDGE     SUNNY     82  54  37 W5        29.88S
SPEARFISH      FAIR      77  57  50 MISG      29.92S
WINNER         FAIR      83  63  50 N6        29.79S
$$

SDZ004>011-016>023-039-040-260200-
NORTHEAST SOUTH DAKOTA

CITY           SKY/WX    TMP DP  RH WIND       PRES   REMARKS
ABERDEEN       CLEAR     88  48  25 W10       29.68F
WATERTOWN      CLEAR     82  54  37 NW7       29.70F
BROOKINGS      CLEAR     82  59  45 NW6       29.72S
SISSETON         N/A     87  53  31 W8        29.64S
$$

SDZ017-020-022-023-036>040-048>070-260200-
SOUTHEAST SOUTH DAKOTA

CITY           SKY/WX    TMP DP  RH WIND       PRES   REMARKS
SIOUX FALLS    PTCLDY    83  59  44 VRB3      29.72S
HURON          CLEAR     84  57  39 NW10      29.70F
CHAMBERLAIN    CLEAR     84  65  52 NW5       29.76S
MITCHELL       CLEAR     84  61  45 NW9       29.72S
YANKTON        CLEAR     85  62  46 NW7       29.73S
$$

ABBREVIATIONS USED IN REMARKS
   TC - TEMPERATURE IN CELSIUS
  WCI - WIND CHILL INDEX
   HX - HEAT INDEX
  VSB - VISIBILITY





USA.gov is the U.S. government's official web portal to all federal, state and local government web resources and services.